Погода в Нижнеангарске

Погода в Нижнеангарске : погода сейчас, прогноз погоды и архив. Всё, что Вы хотите узнать о погоде в Нижнеангарске!

Поиск расширенной информации на нашем сайте:

Другие новости

Новости СМИ2

Главная страница сайта

Новости сайта

03.07.2017

Напоминаем, что на нашем специализированном сайте Метеоцентр.Азия вы можете получить высокодетализированные автоматические прогнозы погоды по пунктам России, СНГ и мира в авиационном формате (включающие направление и скорость ветра, видимость, явления погоды, количество и форму облачности, нижнюю и верхнюю границу облачности).


Погода в Нижнеангарске - сегодня

Время (UTC), дата Ветер
(°,м/с) 
Видим.   Явления Облачность Т
(°С)
Тd
(°С)
f(%) Тe
(°С)
Pmin
(гПа)
dP
(гПа)
Po
(мм)
O2
(г/м3)
Тmin Tmax R s Состояние
почвы
12 20.09.17 010 (С) н/о  слаб. ливневой дождь  10/10 1000 м кучево-дожд. 
[Cb cap]
+8.5 +7 90 +10  1004.9  0.9  712  277    +11.9     
15 20.09.17 330 (СЗ) н/о  {ливн. осадки}  10/10 1000 м кучево-дожд. 
[Cb cap]
+8.4 +6.4 87 +9  1005.6  0.6  712  277           
18 20.09.17 310 (СЗ) н/о  {ливн. осадки}  10/10 1000 м кучево-дожд. 
[Cb cap]
+7.6 +5.2 85 +9  1005.7  -0.1  712  278           
21 20.09.17 330 (СЗ) н/о    10/8 1000 м кучево-дожд., средняя 
[Cb cap|Ac As]
+6.8 +3.5 79 +8  1005.3  -0.5  712  279           
00 21.09.17 010 (С) 20000 м    10/5 1000 м кучево-дожд., средняя, верхняя 
[Cb cap|Ac trans|Ci fib]
+7.6 +1.5 65 +9  1005.7  0.5  712  279  +6.3    0.3    мокрая 
03 21.09.17 040 (СВ) 20000 м    8/3 1000 м верхняя 
[Sc|Ci fib]
+11.9 -1.4 40 +12  1004.6  -0.2  712  275           
06 21.09.17 050 (СВ) 20000 м    10/3 1000 м средняя, верхняя 
[Sc|Ac trans|Ci sp]
+11.7 -2.4 37 +11  1004.7  712  275           
09 21.09.17 080 (В) 20000 м    10/3 1000 м средняя, верхняя 
[Sc|Ac trans|Ci sp]
+10.4 -3.2 38 +10  1004.7  -0.5  712  276           
12 21.09.17 тихо ()   н/о    10/3 1000 м средняя, верхняя 
[Sc|Ac trans|Ci sp]
+7.4 -2.3 50 +7  1005.4  712  279    +12.3       
15 21.09.17 010 (С) н/о    6/0 средняя, верхняя 
[Ac trans|Ci fib]
+7.2 -4.8 42 +8  1004.6  -0.5  711  280           
18 21.09.17 290 (З) н/о    8/0 средняя, верхняя 
[Ac trans|Ci fib]
+4.8 -3.5 55 +4  1004  -1.3  710  282           
21 21.09.17 010 (С) н/о    8/0 средняя, верхняя 
[Ac trans|Ci fib]
+3.4 -4 58 +4  1003.2  -0.7  710  283           
00 22.09.17 тихо ()   20000 м    3/0 средняя 
[Ac lent]
+5.2 -3 55 +5  1001.9  -0.9  709  281  +2.6        мокрая 
03 22.09.17 170 (Ю) 20000 м    8/1 1000 м средняя, верхняя 
[Sc|Ac trans|Ci fib]
+8 -0.1 57 +8  1000.6  -0.7  708  277           
06 22.09.17 230 (ЮЗ) 20000 м    10/3 1000 м средняя, верхняя 
[Sc|Ac trans|Ci fib]
+9 +1 57 +9  999.4  -0.9  708  276           
09 22.09.17 060 (СВ) 20000 м    10/3 1000 м средняя, верхняя 
[Sc|Ac trans|Ci fib]
+8.9 -3.5 41 +8  1000.1  0.6  708  277           
12 22.09.17 360 (С) н/о    8/4 1000 м средняя, верхняя 
[Sc|Ac trans|Ci fib]
+6.4 -3.6 49 +7  1001.6  0.9  709  279    +9.7       
15 22.09.17 320 (СЗ) н/о    5/3 1000 м верхняя 
[Sc|Ci fib]
+4.3 -5.3 50 +5  1002.4  0.4  709  282           
18 22.09.17 330 (СЗ) н/о    3/1 1000 м верхняя 
[Sc|Ci fib]
+5.9 -6.8 40 +6  1002.2  0.1  709  280           
21 22.09.17 320 (СЗ) н/о    4/3 1000 м верхняя 
[Sc|Ci fib]
+3.8 -5 53 +5  1003.7  1.1  710  283           
00 23.09.17 320 (СЗ) 20000 м    10/3 1000 м средняя, верхняя 
[Sc|Ac trans|Ci fib]
+4 -4.4 54 +5  1005.4  1.5  711  283  +2        влажная 
03 23.09.17 300 (СЗ) 20000 м    10/5 1000 м средняя, верхняя 
[Sc|Ac trans|Ci fib]
+7.8 -6.8 35 +8  1005.6  712  280           
06 23.09.17 130 (ЮВ) 20000 м    10/6 1000 м средняя, верхняя 
[Sc|Ac trans|Ci fib]
+8.2 -6.1 36 +9  1006.7  1.1  713  279           
09 23.09.17 030 (СВ) 20000 м    10/6 1000 м средняя, верхняя 
[Sc|Ac trans|Ci fib]
+8.2 -5.6 37 +8  1008.6  1.8  714  280           
12 23.09.17 310 (СЗ) н/о    10/6 1000 м средняя, верхняя 
[Sc|Ac trans|Ci fib]
+4.6 -5.4 48 +5  1011.9  2.4  716  284    +8.7       
Время (UTC), дата Ветер
(°,м/с) 
Видим.   Явления Облачность Т
(°С)
Тd
(°С)
f(%) Тe
(°С)
Pmin
(гПа)
dP
(гПа)
Po
(мм)
O2
(г/м3)
Тmin Tmax R s Состояние
почвы

Для получения пояснительной информации подведите курсор к названию столбца.

ПОГОДА в Нижнеангарске - архив

Всё, что Вы хотите узнать о погоде в Нижнеангарске - удобно и подробно!

Выберите нужную дату (начиная с 1 января 2015* года) и нажмите кнопку "Найти".
Будут отображены архивные сводки погоды по пункту Нижнеангарск, начиная с указанной даты.


Отображать данные в формате CSV (для использования в таблицах Excel)


Внимание! Наш архив погоды предназначен исключительно для личного некоммерческого использования в познавательных целях. Если Вам необходимы официальные справки о состоянии погоды (для производственных, юридических, коммерческих и т.п. целей), обращайтесь в органы Росгидромета.

*Примечание: данная дата относится к архиву по метеостанциям СССР (Россия, СНГ, Балтия).
Архив по метеостанциям Зарубежной Европы и Азии (кроме Китая) хранится 10 дней, по другим регионам земного шара (Китай, Африка, Америка, Австралия, Океания) - 1 день.

Нижнеангарск - район местоположения метеостанции


Название, широта, долгота, высота метеостанции:
Нижнеангарск 55.8°ш. 109.6°д. 487 м над ур. моря [Российская Федерация]

Дополнительная информация

В oтличие oт бoльшинства пoгoдных сайтoв мы публикуем пoдрoбную метеoинфoрмацию в детальнoм прoфессиoнальнoм фoрмате.

Характеристики температуры и влажнoсти вoздуха измеряются на высoте 2 м в тени вдали oт зданий и деревьев.
Скoрoсть ветра измеряется на высoте 10 м (на урoвне рoста челoвека скoрoсть ветра ниже в 1.5-2 раза). Если метеoстанция нахoдится в гoрoде или в лесу, тo скoрoсть ветра занижена на 2-4 м/с пo сравнению с oткрытым местoм. Скoрoсть ветра над акватoриями крупных рек и oзёр, а также на вершинах хoлмoв на 2-5 м/с выше, чем в oбычных услoвиях.
Атмoсфернoе давление в разных тoчках местнoсти мoжет значительнo oтличаться oт давления на метеoстанции, в зависимoсти oт услoвий рельефа (при пoдъёме на 10 м давление пoнижается примернo на 1 мм рт.ст.).